Location: Peterborough
(44.3091°N, 78.3197°W)
Time: 05:08:42
(UTC-04:00)

S-56A Canister/Altair - Pass Details

Date: 23 March 2023
Orbit: 639 x 2492 km, 38.9° (Epoch: 08 June)

Event Time Altitude Azimuth Distance (km) Brightness Sun altitude
Rises 18:53:04 0° 203° (SSW) 4,803 12.0 5.6°
Reaches altitude 10° 18:56:26 10° 193° (SSW) 4,078 11.5 5.0°
Maximum altitude 19:05:52 31° 137° (SE) 3,282 10.4 3.3°
Drops below altitude 10° 19:17:32 10° 84° (E) 5,100 11.1 1.3°
Sets 19:22:19 0° 75° (ENE) 6,169 11.5 0.4°
